Weather History for Highgate, VT

Change the Weather History Date:

Monday, April 1, 2013

  Actual Average (KPBG) Record (KPBG)
Temperature  
Mean Temperature 38 °F 36 °F  
Max Temperature 48 °F 46 °F 73 °F (1967)
Min Temperature 29 °F 26 °F 13 °F (1954)
Degree Days  
Heating Degree Days 28 29  
Month to date heating degree days 29  
Since 1 July heating degree days 6712  
Cooling Degree Days 0 0  
Month to date cooling degree days 0  
Year to date cooling degree days 0  
Moisture  
Dew Point 28 °F    
Average Humidity 66    
Maximum Humidity 88    
Minimum Humidity 33    
Precipitation  
Precipitation 0.00 in - 1.23 in (1976)
Month to date precipitation  
Year to date precipitation  
Sea Level Pressure  
Sea Level Pressure 29.61 in    
Wind  
Wind Speed 8 mph (SW)    
Max Wind Speed 15 mph    
Max Gust Speed 32 mph    
Visibility 9 miles    
Events Rain    
T = Trace of Precipitation, MM = Missing Value Source: NWS Daily Summary

Daily Weather History Graph

Daily Weather History Graph

Search for Another Location

Airport:

Trip Planner

Search our weather history database for the weather conditions in past years. The results will help you decide how hot, cold, wet, or windy it might be!

Date:

Astronomy

Apr. 01, 2013 Rise Set
Actual Time 6:32 AM EDT 7:20 PM EDT
Civil Twilight 6:03 AM EDT 7:50 PM EDT
Nautical Twilight 5:27 AM EDT 8:25 PM EDT
Astronomical Twilight 4:51 AM EDT 9:02 PM EDT
Moon 12:37 AM EDT (4/1) 10:05 AM EDT (4/1)
Length of Visible Light 13h 47m
Length of Day
12h 47m
Waning Gibbous, 67% of the Moon is Illuminated
Apr 1
Waning Gibbous
Apr 3
Last Quarter
Apr 10
New
Apr 18
First Quarter
Apr 25
Full

Hourly Weather History & Observations

Time (EDT) Temp. Windchill Dew Point Humidity Pressure Visibility Wind Dir Wind Speed Gust Speed Precip Events Conditions
12:15 AM 42.8 °F 38.6 °F 38.3 °F 84% 29.69 in 7.0 mi South 6.9 mph - N/A Rain Rain
12:35 AM 42.8 °F 38.0 °F 38.1 °F 84% 29.68 in 10.0 mi South 8.1 mph 17.3 mph N/A Rain Light Rain
12:55 AM 42.3 °F 38.6 °F 37.8 °F 84% 29.68 in 7.0 mi South 5.8 mph - N/A   Drizzle
1:15 AM 41.9 °F 37.5 °F 37.6 °F 85% 29.67 in 7.0 mi South 6.9 mph - N/A   Drizzle
1:35 AM 41.9 °F 37.5 °F 37.8 °F 85% 29.66 in 7.0 mi South 6.9 mph - N/A   Drizzle
1:55 AM 41.9 °F 40.0 °F 38.1 °F 86% 29.65 in 10.0 mi South 3.5 mph - N/A   Drizzle
2:15 AM 41.4 °F 39.4 °F 37.9 °F 88% 29.64 in 7.0 mi South 3.5 mph - N/A   Drizzle
2:35 AM 41.0 °F 35.8 °F 37.4 °F 87% 29.63 in 10.0 mi SSE 8.1 mph - N/A   Drizzle
2:55 AM 41.2 °F 34.5 °F 37.0 °F 85% 29.62 in 10.0 mi SSE 11.5 mph - N/A Rain Rain
3:15 AM 40.8 °F 34.1 °F 36.1 °F 83% 29.61 in 10.0 mi SSE 11.5 mph 16.1 mph N/A   Light Drizzle
3:35 AM 39.7 °F 34.3 °F 35.4 °F 85% 29.60 in 10.0 mi SSE 8.1 mph - N/A   Mostly Cloudy
3:55 AM 40.5 °F 37.3 °F 35.8 °F 83% 29.59 in 10.0 mi South 4.6 mph - N/A   Mostly Cloudy
4:15 AM 40.5 °F 35.1 °F 35.6 °F 83% 29.58 in 10.0 mi SSE 8.1 mph - N/A   Overcast
4:35 AM 40.5 °F 35.1 °F 35.6 °F 83% 29.57 in 10.0 mi SSE 8.1 mph - N/A   Overcast
4:55 AM 40.5 °F 34.6 °F 35.1 °F 81% 29.57 in 10.0 mi South 9.2 mph - N/A   Overcast
5:15 AM 40.6 °F 36.7 °F 34.7 °F 79% 29.57 in 10.0 mi South 5.8 mph - N/A   Overcast
5:35 AM 41.0 °F 35.8 °F 34.7 °F 78% 29.56 in 10.0 mi South 8.1 mph - N/A   Overcast
5:55 AM 41.4 °F 35.7 °F 34.7 °F 77% 29.56 in 10.0 mi South 9.2 mph - N/A   Overcast
6:15 AM 41.5 °F 35.9 °F 34.9 °F 77% 29.56 in 10.0 mi South 9.2 mph - N/A   Overcast
6:35 AM 41.5 °F 36.4 °F 34.9 °F 77% 29.56 in 10.0 mi South 8.1 mph - N/A   Overcast
6:55 AM 41.9 °F 36.9 °F 34.7 °F 76% 29.56 in 10.0 mi South 8.1 mph - N/A   Overcast
7:15 AM 41.9 °F 36.3 °F 35.1 °F 77% 29.55 in 10.0 mi South 9.2 mph 17.3 mph N/A   Overcast
7:35 AM 41.9 °F 36.3 °F 35.1 °F 77% 29.55 in 10.0 mi South 9.2 mph - N/A   Mostly Cloudy
7:55 AM 43.0 °F 37.7 °F 35.4 °F 75% 29.54 in 10.0 mi South 9.2 mph - N/A   Mostly Cloudy
8:15 AM 43.0 °F 36.8 °F 35.1 °F 74% 29.54 in 10.0 mi South 11.5 mph - N/A   Overcast
8:35 AM 44.2 °F 39.2 °F 35.6 °F 72% 29.53 in 10.0 mi South 9.2 mph - N/A   Scattered Clouds
8:55 AM 46.8 °F - 37.0 °F 69% 29.54 in 10.0 mi SSW 9.2 mph 17.3 mph N/A   Scattered Clouds
9:15 AM 46.8 °F - 36.7 °F 68% 29.53 in 10.0 mi SSW 9.2 mph 20.7 mph N/A   Mostly Cloudy
9:35 AM 46.8 °F - 37.4 °F 70% 29.53 in 10.0 mi SW 10.4 mph - N/A   Overcast
9:55 AM 45.0 °F 40.6 °F 36.1 °F 71% 29.53 in 10.0 mi SW 8.1 mph - N/A   Overcast
10:15 AM 42.8 °F 40.1 °F 35.8 °F 76% 29.52 in 5.0 mi South 4.6 mph - N/A   Drizzle
10:35 AM 42.4 °F 39.6 °F 37.2 °F 82% 29.52 in 4.0 mi SSW 4.6 mph - N/A Rain Light Rain
10:55 AM 42.6 °F 38.4 °F 37.4 °F 82% 29.51 in 5.0 mi South 6.9 mph - N/A Rain Light Rain
11:15 AM 43.7 °F 39.1 °F 39.0 °F 84% 29.51 in 10.0 mi South 8.1 mph - N/A   Overcast
11:35 AM 46.0 °F 41.4 °F 40.3 °F 80% 29.50 in 10.0 mi South 9.2 mph - N/A   Overcast
11:55 AM 46.6 °F - 39.9 °F 78% 29.50 in 10.0 mi SSW 5.8 mph - N/A   Overcast
12:15 PM 45.5 °F 43.2 °F 39.2 °F 79% 29.50 in 10.0 mi SSW 4.6 mph - N/A   Overcast
12:35 PM 46.0 °F 43.1 °F 39.2 °F 77% 29.51 in 10.0 mi SW 5.8 mph - N/A Rain Light Rain
12:55 PM 44.2 °F 41.8 °F 37.6 °F 77% 29.50 in 7.0 mi SSW 4.6 mph - N/A Rain Light Rain
1:15 PM 44.2 °F 41.8 °F 38.8 °F 81% 29.50 in 7.0 mi SW 4.6 mph - N/A Rain Light Rain
1:35 PM 40.5 °F 32.8 °F 34.0 °F 78% 29.52 in 10.0 mi West 13.8 mph 21.9 mph N/A Rain Light Rain
1:55 PM 39.2 °F 37.0 °F 34.7 °F 84% 29.53 in 7.0 mi WSW 3.5 mph - N/A   Overcast
2:15 PM 40.5 °F 35.8 °F 34.0 °F 78% 29.53 in 10.0 mi West 6.9 mph - N/A   Overcast
2:35 PM 41.9 °F 35.4 °F 26.4 °F 54% 29.54 in 10.0 mi WSW 11.5 mph 25.3 mph N/A   Overcast
2:55 PM 41.9 °F 35.0 °F 23.9 °F 49% 29.56 in 10.0 mi West 12.7 mph 31.1 mph N/A   Overcast
3:15 PM 41.7 °F 34.4 °F 23.4 °F 48% 29.57 in 10.0 mi WSW 13.8 mph 24.2 mph N/A   Overcast
3:35 PM 44.1 °F 39.0 °F 22.6 °F 43% 29.58 in 10.0 mi WSW 9.2 mph 24.2 mph N/A   Mostly Cloudy
3:55 PM 41.9 °F 36.3 °F 20.3 °F 42% 29.58 in 10.0 mi WSW 9.2 mph 21.9 mph N/A   Mostly Cloudy
4:15 PM 41.5 °F 34.2 °F 18.1 °F 39% 29.59 in 10.0 mi WSW 13.8 mph 27.6 mph N/A   Overcast
4:35 PM 40.8 °F 33.7 °F 14.0 °F 34% 29.60 in 10.0 mi West 12.7 mph 31.1 mph N/A   Mostly Cloudy
4:55 PM 39.7 °F 32.3 °F 12.6 °F 33% 29.61 in 10.0 mi WSW 12.7 mph 27.6 mph N/A   Scattered Clouds
5:15 PM 39.2 °F 31.6 °F 14.4 °F 36% 29.64 in 10.0 mi WSW 12.7 mph 32.2 mph N/A   Mostly Cloudy
5:35 PM 38.8 °F 31.2 °F 16.5 °F 40% 29.64 in 10.0 mi West 12.7 mph 26.5 mph N/A   Mostly Cloudy
5:55 PM 36.7 °F 28.9 °F 20.1 °F 51% 29.66 in 10.0 mi West 11.5 mph 24.2 mph N/A   Mostly Cloudy
6:15 PM 36.7 °F 28.4 °F 18.1 °F 47% 29.67 in 10.0 mi West 12.7 mph 23.0 mph N/A   Overcast
6:35 PM 36.1 °F 27.7 °F 19.0 °F 50% 29.68 in 10.0 mi West 12.7 mph 23.0 mph N/A   Mostly Cloudy
6:55 PM 35.2 °F 26.2 °F 14.9 °F 43% 29.69 in 10.0 mi West 13.8 mph 21.9 mph N/A   Overcast
7:15 PM 34.2 °F 25.7 °F 12.6 °F 41% 29.70 in 10.0 mi West 11.5 mph 19.6 mph N/A   Mostly Cloudy
7:35 PM 34.2 °F 24.8 °F 9.3 °F 36% 29.70 in 10.0 mi WSW 13.8 mph 26.5 mph N/A   Mostly Cloudy
7:55 PM 34.2 °F 24.8 °F 10.4 °F 37% 29.71 in 10.0 mi West 13.8 mph 23.0 mph N/A   Overcast
8:15 PM 34.2 °F 25.7 °F 11.7 °F 39% 29.72 in 10.0 mi West 11.5 mph 23.0 mph N/A   Overcast
8:35 PM 34.2 °F 26.2 °F 13.8 °F 43% 29.73 in 10.0 mi West 10.4 mph 21.9 mph N/A   Overcast
8:55 PM 34.2 °F 26.8 °F 15.4 °F 46% 29.74 in 10.0 mi West 9.2 mph 18.4 mph N/A   Overcast
9:15 PM 30.7 °F 24.1 °F 17.6 °F 58% 29.75 in 10.0 mi WNW 6.9 mph - N/A   Scattered Clouds
9:35 PM 30.4 °F 26.9 °F 19.6 °F 64% 29.76 in 10.0 mi West 3.5 mph - N/A   Mostly Cloudy
9:55 PM 29.8 °F 21.5 °F 18.1 °F 62% 29.77 in 10.0 mi WNW 9.2 mph 16.1 mph N/A   Mostly Cloudy
10:15 PM 29.3 °F 19.6 °F 17.6 °F 62% 29.77 in 10.0 mi West 11.5 mph 20.7 mph N/A   Mostly Cloudy
10:35 PM 29.3 °F 22.3 °F 15.4 °F 56% 29.77 in 10.0 mi West 6.9 mph 21.9 mph N/A   Overcast
10:55 PM 29.3 °F 24.3 °F 15.1 °F 55% 29.78 in 10.0 mi West 4.6 mph - N/A   Mostly Cloudy
11:15 PM 29.3 °F 18.2 °F 11.3 °F 47% 29.78 in 10.0 mi West 15.0 mph 25.3 mph N/A   Mostly Cloudy
11:35 PM 29.3 °F 22.3 °F 11.5 °F 47% 29.78 in 10.0 mi WNW 6.9 mph 25.3 mph N/A   Mostly Cloudy
11:55 PM 29.3 °F 21.5 °F 12.0 °F 49% 29.79 in 10.0 mi WNW 8.1 mph - N/A   Scattered Clouds